AFR091 KMIA-LFPG

Flight info

Callsign AFR091
Flight time N/A
Altitude 35000
Route FOLZZ3 PADUS BR66V ZFP DCT CNNOR/M083F350 DCT ILIDO DCT BOREX M329 BDA DCT BALOO DCT 36N060W 42N050W 4530N04000W 4730N03000W 49N020W DCT BEDRA DCT NASBA DCT RATKA/N0479F350 DCT LARLA DCT GANTO DCT JSY UY111 INGOR UM25 LUKIP
Aircraft B77W/H-SDE2E3FGHIJ3J5M1P2RWXYZ/LB1D1

Departure

Time 2026-05-04 23:14
Airport Miami International Airport (KMIA)

Arrival

Time N/A
Airport Charles de Gaulle International Airport (LFPG)
Time Latitude Longitude Altitude Speed Heading
2026-05-04 22:39 25.79028 -80.27295 20 ft 0 kts 314°
2026-05-04 23:00 25.79027 -80.27295 20 ft 2 kts 314°
2026-05-04 23:00 25.79010 -80.27275 20 ft 4 kts 314°
2026-05-04 23:00 25.78992 -80.27255 20 ft 2 kts 314°
2026-05-04 23:01 25.78976 -80.27236 21 ft 4 kts 304°
2026-05-04 23:01 25.78964 -80.27210 21 ft 4 kts 281°
2026-05-04 23:01 25.78965 -80.27183 24 ft 4 kts 231°
2026-05-04 23:01 25.78984 -80.27175 20 ft 4 kts 178°
2026-05-04 23:02 25.79009 -80.27176 20 ft 2 kts 178°
2026-05-04 23:02 25.79010 -80.27176 20 ft 0 kts 178°
2026-05-04 23:06 25.79000 -80.27176 20 ft 6 kts 179°
2026-05-04 23:06 25.78941 -80.27207 20 ft 11 kts 239°
2026-05-04 23:07 25.78928 -80.27288 20 ft 11 kts 266°
2026-05-04 23:07 25.78924 -80.27371 20 ft 11 kts 267°
2026-05-04 23:07 25.78914 -80.27477 20 ft 16 kts 260°
2026-05-04 23:07 25.78892 -80.27602 20 ft 17 kts 258°
2026-05-04 23:08 25.78877 -80.27729 20 ft 17 kts 266°
2026-05-04 23:08 25.78872 -80.27858 20 ft 17 kts 267°
2026-05-04 23:08 25.78890 -80.27982 24 ft 17 kts 297°
2026-05-04 23:08 25.78947 -80.28095 21 ft 17 kts 299°
2026-05-04 23:09 25.79004 -80.28207 21 ft 17 kts 299°
2026-05-04 23:09 25.79061 -80.28319 21 ft 17 kts 300°
2026-05-04 23:09 25.79122 -80.28428 20 ft 17 kts 309°
2026-05-04 23:09 25.79191 -80.28541 19 ft 19 kts 300°
2026-05-04 23:10 25.79255 -80.28667 19 ft 19 kts 300°
2026-05-04 23:10 25.79327 -80.28808 19 ft 23 kts 300°
2026-05-04 23:10 25.79407 -80.28964 19 ft 23 kts 300°
2026-05-04 23:10 25.79487 -80.29121 20 ft 23 kts 299°
2026-05-04 23:11 25.79567 -80.29277 20 ft 23 kts 300°
2026-05-04 23:11 25.79647 -80.29433 20 ft 23 kts 300°
2026-05-04 23:11 25.79726 -80.29590 19 ft 23 kts 299°
2026-05-04 23:11 25.79806 -80.29746 19 ft 23 kts 300°
2026-05-04 23:12 25.79886 -80.29902 19 ft 23 kts 300°
2026-05-04 23:12 25.79955 -80.30037 18 ft 14 kts 300°
2026-05-04 23:12 25.80017 -80.30119 19 ft 14 kts 333°
2026-05-04 23:12 25.80074 -80.30062 18 ft 14 kts 86°
2026-05-04 23:13 25.80081 -80.29930 17 ft 28 kts 87°
2026-05-04 23:13 25.80100 -80.29435 19 ft 103 kts 87°
2026-05-04 23:13 25.80142 -80.28382 20 ft 168 kts 87°
2026-05-04 23:13 25.80219 -80.26948 325 ft 192 kts 86°
2026-05-04 23:14 25.80320 -80.25450 966 ft 196 kts 89°
2026-05-04 23:14 25.79953 -80.24005 1521 ft 198 kts 123°
2026-05-04 23:14 25.79192 -80.22678 1890 ft 215 kts 121°
2026-05-04 23:14 25.78404 -80.21158 2136 ft 240 kts 120°
2026-05-04 23:15 25.77552 -80.19490 2611 ft 254 kts 120°
2026-05-04 23:15 25.76672 -80.17757 3307 ft 261 kts 119°
2026-05-04 23:15 25.75788 -80.15977 4067 ft 265 kts 119°
2026-05-04 23:15 25.74898 -80.14174 4860 ft 268 kts 119°
2026-05-04 23:16 25.74173 -80.12278 5494 ft 271 kts 98°
2026-05-04 23:16 25.74367 -80.10211 6133 ft 275 kts 65°
2026-05-04 23:16 25.75448 -80.08482 6835 ft 274 kts 48°
2026-05-04 23:16 25.76722 -80.06878 7456 ft 280 kts 49°
2026-05-04 23:17 25.78011 -80.05245 8204 ft 282 kts 48°
2026-05-04 23:17 25.79309 -80.03606 8939 ft 284 kts 48°
2026-05-04 23:17 25.80620 -80.01952 9614 ft 287 kts 48°
2026-05-04 23:17 25.81944 -80.00281 10275 ft 292 kts 48°
2026-05-04 23:18 25.83327 -79.98532 10556 ft 313 kts 49°
2026-05-04 23:18 25.84816 -79.96648 10763 ft 336 kts 49°
2026-05-04 23:18 25.86412 -79.94623 10957 ft 360 kts 49°
2026-05-04 23:18 25.88093 -79.92488 11464 ft 373 kts 49°
2026-05-04 23:19 25.89822 -79.90290 12199 ft 381 kts 49°
2026-05-04 23:19 25.91577 -79.88057 13084 ft 385 kts 49°
2026-05-04 23:19 25.93344 -79.85807 13984 ft 389 kts 49°
2026-05-04 23:19 25.95133 -79.83527 14827 ft 394 kts 49°
2026-05-04 23:20 25.96945 -79.81217 15639 ft 399 kts 49°
2026-05-04 23:20 25.98777 -79.78880 16424 ft 404 kts 49°
2026-05-04 23:20 26.00633 -79.76512 17201 ft 408 kts 49°
2026-05-04 23:20 26.02509 -79.74117 17959 ft 413 kts 49°
2026-05-04 23:21 26.04405 -79.71694 18691 ft 417 kts 49°
2026-05-04 23:21 26.06318 -79.69248 19418 ft 422 kts 49°
2026-05-04 23:21 26.08254 -79.66774 20105 ft 426 kts 49°
2026-05-04 23:21 26.10211 -79.64271 20782 ft 431 kts 49°
2026-05-04 23:22 26.12113 -79.61673 21422 ft 435 kts 53°
2026-05-04 23:22 26.13879 -79.58919 22066 ft 439 kts 55°
2026-05-04 23:22 26.15605 -79.56095 22691 ft 443 kts 56°
2026-05-04 23:22 26.17342 -79.53247 23262 ft 447 kts 55°
2026-05-04 23:23 26.19118 -79.50378 23850 ft 451 kts 55°
2026-05-04 23:23 26.20924 -79.47502 24409 ft 455 kts 54°
2026-05-04 23:23 26.22752 -79.44613 24947 ft 459 kts 54°
2026-05-04 23:23 26.24602 -79.41699 25467 ft 462 kts 54°
2026-05-04 23:24 26.26462 -79.38764 25967 ft 466 kts 54°
2026-05-04 23:24 26.28329 -79.35793 26452 ft 469 kts 56°
2026-05-04 23:24 26.29833 -79.32557 26884 ft 473 kts 71°
2026-05-04 23:24 26.30728 -79.29019 27341 ft 476 kts 76°
2026-05-04 23:25 26.31550 -79.25436 27782 ft 479 kts 75°
2026-05-04 23:25 26.32438 -79.21844 28200 ft 482 kts 74°
2026-05-04 23:25 26.33393 -79.18256 28587 ft 485 kts 73°
2026-05-04 23:25 26.34379 -79.14644 28972 ft 488 kts 73°
2026-05-04 23:26 26.35488 -79.11059 29310 ft 490 kts 68°
2026-05-04 23:26 26.36902 -79.07601 29724 ft 491 kts 62°
2026-05-04 23:26 26.38552 -79.04280 30221 ft 489 kts 60°
2026-05-04 23:26 26.40213 -79.00982 30716 ft 487 kts 60°
2026-05-04 23:27 26.41864 -78.97683 31171 ft 486 kts 61°
2026-05-04 23:27 26.43501 -78.94381 31585 ft 486 kts 61°
2026-05-04 23:27 26.45127 -78.91073 31969 ft 486 kts 61°
2026-05-04 23:27 26.46742 -78.87769 32375 ft 485 kts 61°
2026-05-04 23:28 26.48354 -78.84465 32772 ft 484 kts 61°
2026-05-04 23:28 26.49965 -78.81162 33152 ft 483 kts 61°
2026-05-04 23:28 26.51571 -78.77867 33512 ft 483 kts 61°
2026-05-04 23:28 26.53172 -78.74583 33867 ft 482 kts 61°
2026-05-04 23:29 26.54773 -78.71293 34229 ft 481 kts 62°
2026-05-04 23:29 26.56230 -78.67940 34532 ft 481 kts 68°
2026-05-04 23:29 26.57458 -78.64468 34845 ft 480 kts 69°
2026-05-04 23:29 26.58655 -78.60970 34959 ft 484 kts 69°
2026-05-04 23:30 26.61046 -78.53925 35006 ft 484 kts 69°
2026-05-04 23:30 26.63436 -78.46950 35007 ft 478 kts 69°
2026-05-04 23:31 26.65827 -78.40022 35003 ft 477 kts 69°
2026-05-04 23:31 26.68215 -78.33107 34995 ft 477 kts 69°
2026-05-04 23:32 26.70605 -78.26175 35001 ft 478 kts 69°
2026-05-04 23:32 26.72991 -78.19240 35004 ft 479 kts 69°
2026-05-04 23:33 26.75380 -78.12280 35002 ft 479 kts 69°
2026-05-04 23:33 26.77751 -78.05361 35007 ft 480 kts 69°